www.pogodaiklimat.ru

Погода и климат >> Архив погоды >> Россия >> Курганская область >> Целинное


ПОГОДА в Целинном

  • Прогноз погоды в Целинном
  • Монитор погоды в Целинном
  • Климат города

АРХИВ ПОГОДЫ в Целинном

Время (UTC), дата Ветер
(напр.,м/с)
 
Видим.   Явления Облачность Т
(С)
Тd
(С)
f
(%)
Тe
(С)
Тes
(С)
Комфортность P
(гПа)
Po
(гПа)
Тmin
(С)
Tmax
(С)
R
(мм)
R24
(мм)
S
(см)
21 7.08 З 2 н/о н/о +18.7 +15.6 82 +20 +20 1006.2 989.4
00 8.08 штиль 0 н/о н/о +16.9 +14.9 88 +17 +17 1006.0 989.1
03 8.08 СЗ 1 50 км 3/0
[Ci]
+20.7 +15.6 73 +25 +29 комфорт 1006.1 989.5 +16.2
06 8.08 З 3 50 км 1/1 600 м
[Sc]
+26.4 +15.0 50 +29 +38 жарко 1006.1 989.7
09 8.08 ЮЗ 3 50 км 3/3 600 м
[Cu med, cong]
+29.5 +13.4 37 +31 +38 жарко 1005.1 988.9
12 8.08 З 3 50 км 3/1 600 м
[Cu med, cong Ci]
+29.9 +12.8 35 +31 +34 жарко 1004.2 988.0
15 8.08 ЮЗ 1 20 км 3/1 600 м
[Sc diur, vesp Ci]
+25.0 +14.0 50 +27 +27 жарко 1004.1 987.6 +30.5
18 8.08 СЗ 1 н/о н/о +18.6 +14.2 76 +20 +20 1004.5 987.7
21 8.08 З 3 н/о н/о +18.0 +15.9 88 +18 +18 1004.3 987.5
00 9.08 ЮЗ 1 н/о н/о +15.6 +13.5 87 +16 +16 1002.8 985.9
03 9.08 З 3 50 км 6/6 600 м
[Cb cap]
+19.8 +16.4 81 +22 +24 комфорт 1002.9 986.2 +14.4 0.8
06 9.08 З 4 50 км 5/4 600 м
[Sc Ac trans]
+24.3 +15.5 58 +27 +31 жарко 1003.1 986.6
09 9.08 ЮЗ 5
{11}
50 км 5/5 600 м
[Cu med, cong]
+27.2 +14.0 44 +29 +33 жарко 1002.9 986.6
15 9.08 З 1
{10}
20 км 4/4 600 м
[Sc diur, vesp]
+21.1 +14.6 66 +24 +24 комфорт 1003.2 986.6 +27.8
18 9.08 СЗ 2 н/о н/о +13.6 +11.6 88 +13 +13 1004.5 987.4
21 9.08 С 5 н/о н/о +14.2 +12.1 87 +12 +12 1005.7 988.6
00 10.08 С 3 н/о н/о +13.6 +10.7 83 +12 +12 1005.9 988.8
03 10.08 С 5 50 км 10/10 600 м
[Cb cap]
+14.4 +11.6 83 +13 +13 1006.7 989.6 +13.2
09 10.08 С 7-11
{12}
50 км в посл. час ливневой дождь 10/10 600 м
[Cb cap]
+14.8 +10.0 73 +13 +13 1009.2 992.0
15 10.08 СЗ 3
{11}
20 км 9/9 600 м
[Sc]
+14.2 +8.8 70 +13 +13 1010.5 993.3 +16.0
18 10.08 З 3 н/о н/о +11.1 +7.9 81 +9 +9 1010.8 993.5
21 10.08 З 3 н/о н/о +11.3 +8.2 81 +9 +9 1009.4 992.0
00 11.08 З 4 н/о н/о +12.5 +9.1 80 +11 +11 1007.0 989.8
03 11.08 З 6-10
{10}
50 км {ливн. осадки} 9/9 600 м
[Cb cap]
+15.1 +10.9 76 +13 +14 1005.0 987.9 +10.3 0.5
09 11.08 СЗ 7-10
{13}
50 км в посл. час ливневой дождь 10/9 600 м
[Cb cap Ci]
+21.1 +13.6 62 +24 +24 комфорт 1002.6 985.9
15 11.08 СЗ 2
{12}
20 км 4/4 600 м
[Cb cap]
+18.2 +12.0 67 +19 +19 1004.8 988.0 +22.9 1
18 11.08 штиль 0 н/о н/о +10.9 +9.3 90 +10 +10 1007.6 990.3
21 11.08 З 1 н/о н/о +7.6 +6.2 91 +7 +7 1009.0 991.4
00 12.08 штиль 0 н/о н/о +4.2 +2.9 91 +3 +3 1009.9 992.1
03 12.08 С 4 50 км 1/0
[Ci]
+14.0 +9.4 74 +13 +15 1010.7 993.5 +3.7
06 12.08 СЗ 6
{10}
50 км 1/1 600 м
[Cu hum]
+20.1 +8.2 46 +21 +25 комфорт 1010.9 994.0
09 12.08 С 6
{12}
50 км 3/3 600 м
[Cu med, cong]
+23.4 +8.9 40 +25 +28 комфорт 1010.5 993.9
15 12.08 З 2 20 км 1/1 600 м
[Sc diur, vesp]
+20.1 +13.1 64 +23 +23 комфорт 1011.0 994.2 +24.3
18 12.08 штиль 0 н/о н/о +13.3 +11.4 88 +13 +13 1012.4 995.1
21 12.08 СЗ 1 н/о н/о +11.2 +9.8 91 +11 +11 1013.0 995.6
00 13.08 штиль 0 н/о н/о +10.0 +8.7 92 +9 +9 1013.3 995.8
03 13.08 ЮЗ 1 50 км 3/3 600 м
[Sc]
+19.6 +14.7 73 +23 +25 комфорт 1013.3 996.4 +9.4
06 13.08 ЮЗ 2 50 км 4/0
[Ci]
+26.1 +15.5 52 +29 +39 жарко 1012.8 996.3
09 13.08 ЮЗ 3 50 км 8/6 600 м
[Cu med, cong Ci]
+29.6 +13.6 38 +31 +35 жарко 1011.9 995.6
12 13.08 З 2 50 км 8/5 600 м
[Cu med, cong Ci]
+30.2 +12.0 33 +31 +33 жарко 1010.9 994.6
15 13.08 Ю 1 20 км 8/4 600 м
[Cb cap Ci]
+22.6 +15.7 65 +27 +27 душно 1010.9 994.2 +30.4
18 13.08 штиль 0 н/о н/о +16.1 +13.6 85 +16 +16 1011.8 994.7
21 13.08 штиль 0 н/о н/о +17.0 +13.3 79 +17 +17 1011.2 994.2
00 14.08 СЗ 1 н/о н/о +12.8 +11.2 90 +13 +13 1011.1 993.9
03 14.08 Ю 2 50 км 3/3 600 м
[Cb cap]
+22.0 +14.6 63 +25 +27 комфорт 1010.8 994.1 +12.6
06 14.08 Ю 2 50 км 9/9 600 м
[Cb cap]
+25.3 +15.4 54 +28 +29 жарко 1010.4 993.9
09 14.08 Ю 3 50 км 8/8 600 м
[Cb cap]
+29.5 +13.7 38 +31 +33 жарко 1009.7 993.4
15 14.08 Ю 4
{12}
20 км {гроза} 9/9 600 м
[Cb cap]
+22.2 +15.1 64 +26 +26 душно 1009.9 993.2 +30.9

 

Местоположение метеостанции Целинное (Курганская область, Россия): широта 54.50 долгота 63.67 высота над уровнем моря 145 м.

В архиве по умолчанию представлена погода в Целинном за последнюю неделю. Архивные данные за месяц целиком и за предыдущие месяцы, начиная с января 2011 года, Вы можете получить, выбрав интересующий диапазон дат из раскрывающегося списка и нажав кнопку "Ввод!".


*Определитесь, кто Вы:
робот инопланетянин человек

Внимание! Время в таблицах - всемирное. Для получения местного времени необходимо прибавить поправку, которая в Целинном равна 5 ч.

Смотрите также архив погоды в соседних городах и на ближайших метеорологических станциях:

Погода в Октябрьском (Челябинская область, Россия) (63 км)
Погода в Куртамыше (Курганская область, Россия) (68 км)
Погода в Звериноголовском (Курганская область, Россия) (78 км)
Погода в Шумихе (Курганская область, Россия) (84 км)
Погода в Карабалыке (Костанайская область, Казахстан) (130 км)
Погода в Пресногорьковке (Костанайская область, Казахстан) (136 км)
Погода в Троицке (Челябинская область, Россия) (141 км)
Погода в Костанае (Костанайская область, Казахстан) (142 км)
Погода в Костанае 2 (Костанайская область, Казахстан) (145 км)
Погода в Южноуральске (Челябинская область, Россия) (150 км)

Пояснения к столбцам:

Ветер - указаны скорость ветра в м/с - средняя за 10 мин, порывы в срок и между сроками (в фигурных скобках) и направление, откуда дует ветер: С - северный, СВ - северо-восточный, В - восточный, ЮВ - юго-восточный, Ю - южный, ЮЗ - юго-западный, З - западный, СЗ - северо-западный.
Видимость - горизонтальная дальность видимости в метрах или километрах. При видимости от 1 до 10 км при отсутствии осадков обычно наблюдается дымка, при ухудшении видимости до 1 км и менее - туман. В сухую погоду видимость может ухудшаться дымом, пылью или мглою.
Явления - указаны атмосферные явления, наблюдавшиеся в срок или в последний час перед сроком; фигурными скобками обозначены явления, наблюдавшиеся между сроками (за 1-3 часа до срока); квадратными скобками обозначены град или гололедные отложения с указанием их диаметра в мм.
Облачность - указаны через наклонную черту общая и нижняя облачность в баллах и высота нижней границы облаков в метрах; квадратными скобками обозначены формы облаков: Ci - перистые, Cs - перисто-слоистые, Cc - перисто-кучевые, Ac - высококучевые, As - высокослоистые, Sc - слоисто-кучевые, Ns - слоисто-дождевые, Cu - кучевые, Cb - кучево-дождевые. Подробнее классификацию облаков см. в Атласе облаков (PDF).
T - Температура воздуха - температура, измеренная на высоте 2 м над землей.
Td - Температура точки росы - температура, при понижении до которой содержащийся в воздухе водяной пар достигнет насыщения.
f - Относительная влажность воздуха - влажноcть воздуха, измеренная на высоте 2 м над землей.
Te - Эффективная температура - температура, которую ощущает одетый по сезону человек в тени. Характеристика душности погоды. При расчете учитывается влияние влажности воздуха и скорости ветра на теплоощущения человека.
Tes - Эффективная температура на солнце - температура, которую ощущает человек, с поправкой на солнечный нагрев. Характеристика знойности погоды. Зависит от высоты солнца над горизонтом, облачности и скорости ветра. Ночью, в пасмурную погоду, а также при ветре 12 м/с и более поправка равна нулю.
P - Атмосферное давление - приведенное к уровню моря атмосферное давление.
Po - Атмосферное давление - измеренное на уровне метеостанции атмосферное давление.
Tmin - Минимальная температура - минимум температуры воздуха на высоте 2 м над землей.
Tmax - Максимальная температура - максимум температуры воздуха на высоте 2 м над землей.
R - Количество осадков - Количество выпавших осадков за период времени, мм. При наведении курсора мыши на число - период времени, за который выпало указанное количество осадков.
R24 - Количество осадков - Количество выпавших осадков за 24 часа, мм.
S - Снежный покров - Высота снежного покрова, см. При наведении курсора мыши на число - состояние снежного покрова и степень покрытия местности в баллах.